Flag for U.S.A. Weather past 2 weeks in Nashville, Tennessee, U.S.A.

Now
62 °F

Passing clouds.


Feels Like: 62 °F
Forecast: 57 / 78 °F
Wind: No wind

Location: Nashville International Airport

Current Time: Sep 18, 2014 at 5:50:38 AM

Latest Report: Sep 18, 2014 at 4:53 AM


Visibility: 10 mi

Pressure: 29.97 "Hg

Humidity: 86%

Dew point: 58 °F

Location of NashvilleLocation

Historic Weather in Nashville — Graph

°F

Nashville temperature yesterday

Maximum temperature yesterday: 74 °F (at 1:53 PM)
Minimum temperature yesterday: 56 °F (at 3:53 AM)
Average temperature yesterday: 64 °F

Past Weeks' High & Low Weather Summary

 TemperatureHumidityPressure
High91 °F (Sep 5, 3:53 PM)100% (Sep 9, 6:53 AM)30.27 "Hg (Sep 9, 6:53 AM)
Low55 °F (Sep 14, 5:53 AM)44% (Sep 14, 3:53 PM)29.85 "Hg (Sep 10, 6:53 PM)
Average72 °F79%30.06 "Hg
* Reported Sep 3 3:53 AM — Sep 18 3:53 AM, Nashville, Weather by CustomWeather, © 2014

Note: Actual official high and low records may vary slightly from our data, if they occured in-between our weather recording intervals... More about our weather records

Advertising

Nashville weather history for previous 24 hours

 ConditionsComfort  
Time TempWeatherWind HumidityBarometerVisibility
3:53 AM
Sep 18
62 °FPassing clouds.5 mph86%29.96 "Hg10 mi
2:53 AM63 °FPassing clouds.3 mph87%29.96 "Hg10 mi
1:53 AM64 °FOvercast.No wind84%29.97 "Hg10 mi
12:53 AM64 °FOvercast.No wind81%29.97 "Hg10 mi
11:53 PM
Sep 17
65 °FMostly cloudy.3 mph81%29.98 "Hg10 mi
10:53 PM65 °FOvercast.No wind85%29.98 "Hg10 mi
9:53 PM66 °FMostly cloudy.5 mph78%29.97 "Hg10 mi
8:53 PM65 °FMostly cloudy.No wind78%29.97 "Hg10 mi
7:53 PM65 °FMostly cloudy.No wind78%29.96 "Hg10 mi
6:53 PM66 °FPassing clouds.No wind73%29.94 "Hg10 mi
5:53 PM70 °FBroken clouds.6 mph64%29.94 "Hg10 mi
4:53 PM72 °FOvercast.5 mph57%29.96 "Hg10 mi
3:53 PM72 °FPartly sunny.3 mph55%29.97 "Hg10 mi
2:53 PM73 °FPartly sunny.6 mph53%29.98 "Hg10 mi
1:53 PM74 °FBroken clouds.6 mph52%30.00 "Hg10 mi
12:53 PM70 °FMore clouds than sun.No wind59%30.02 "Hg10 mi
11:53 AM67 °FMore clouds than sun.No wind71%30.03 "Hg10 mi
10:53 AM64 °FOvercast.5 mph78%30.05 "Hg10 mi
9:53 AM60 °FFog.3 mph90%30.05 "Hg4 mi
8:53 AM58 °FFog.5 mph93%30.03 "Hg2 mi
7:53 AM58 °FFog.5 mph93%30.03 "Hg2 mi
6:53 AM57 °FFog.3 mph93%30.04 "Hg4 mi
5:53 AM56 °FFog.5 mph97%30.03 "Hg5 mi
Weather by CustomWeather, © 2014

See weather overviewHow to use our weather pages